Theta_e
308 308 310 311 311 314 310 311 311 311 312 312 312 312 311 314 313 310 310 310 309 312 315 309 309 309 309 310 312 311 309 308 308 306 304 304 303 305 310 308 308 310 307 306 304 301 299 298 300 304 305 306 306 307 307 307 307 307 307 308 308 309 309
311 310 311 311 310 310 309 309 310 310 310 311 310 311 311 312 316 311 309 310 309 310 317 311 310 310 308 308 308 309 308 307 308 311 304 304 304 304 305 303 305 305 305 305 306 304 302 298 299 300 302 305 305 305 306 306 307 307 308 307 309 310 310
309 307 307 307 308 308 308 308 308 309 310 310 309 309 310 312 311 313 311 311 309 313 320 310 309 308 308 307 308 308 309 306 307 309 306 304 306 305 305 306 303 302 302 302 302 302 301 301 298 300 302 301 300 302 306 305 306 307 307 307 307 307 307
306 306 306 306 307 307 307 308 307 308 309 310 310 309 309 310 310 317 312 312 313 316 315 309 309 309 309 307 308 308 310 307 306 307 308 308 307 305 305 304 304 305 303 301 300 301 300 298 299 300 301 302 302 301 303 305 308 307 306 306 306 306 307
306 308 306 306 307 307 307 307 308 308 308 308 308 308 308 308 313 310 314 312 312 309 308 309 310 310 311 310 308 307 309 308 306 312 308 305 304 304 305 305 305 307 306 304 303 304 302 301 301 300 300 301 301 301 304 304 305 305 305 306 306 306 306
307 307 307 307 307 307 307 307 307 307 307 307 306 307 307 308 311 310 308 309 309 311 312 310 310 310 310 310 307 307 308 308 307 306 306 306 305 304 304 305 306 307 307 306 305 304 304 304 303 299 301 301 299 300 302 303 302 305 306 305 306 306 306
307 307 307 307 308 308 307 307 307 307 307 306 306 307 309 309 311 312 312 310 310 309 311 310 310 310 311 310 308 307 307 308 307 307 307 308 307 306 306 305 305 306 306 306 305 305 304 303 301 300 300 299 300 300 300 300 302 302 302 304 305 306 306
309 309 308 309 308 309 308 308 308 309 307 308 307 308 311 311 310 310 310 309 310 310 310 310 313 312 311 313 312 310 309 308 308 309 308 307 308 307 306 305 306 307 306 307 305 305 305 304 303 302 300 298 297 297 299 300 301 301 302 303 305 305 306
315 312 312 313 310 308 310 308 308 309 309 308 308 310 311 311 310 310 310 310 310 310 310 310 310 310 309 308 308 309 308 312 309 308 308 307 307 306 306 306 306 307 307 307 306 306 305 305 304 304 302 300 298 296 297 297 297 299 302 301 303 305 305
313 311 310 309 310 311 310 308 308 309 309 309 310 311 311 310 309 309 310 310 310 310 310 310 310 310 309 308 308 308 307 307 308 307 307 306 306 305 305 304 303 304 304 305 305 306 305 305 305 305 304 303 302 298 296 296 297 296 299 302 300 301 304
313 311 310 310 309 312 311 310 310 309 309 311 312 312 312 311 310 314 312 312 312 311 310 310 310 309 309 308 308 307 307 307 305 305 305 303 302 301 300 298 298 298 299 300 301 303 304 304 304 305 305 305 304 301 300 297 297 298 298 300 302 301 303
312 311 311 311 310 310 311 310 310 310 309 309 312 311 309 310 310 311 311 310 310 309 309 308 309 308 308 306 307 304 304 303 301 301 301 300 300 298 297 296 296 296 297 298 299 300 301 302 302 303 303 304 304 303 301 300 296 299 301 300 301 303 304
313 312 311 311 309 309 310 310 310 309 309 311 310 309 308 309 309 309 309 309 309 308 308 308 308 307 305 304 303 302 301 301 300 299 299 299 299 297 296 294 295 295 297 297 298 299 299 300 301 300 301 301 302 302 302 300 297 297 300 301 302 302 304
312 312 312 310 308 308 309 312 309 309 310 309 308 309 310 309 309 309 309 310 308 307 306 306 306 305 303 302 302 302 300 300 299 298 299 297 297 296 295 294 294 296 297 297 298 299 299 298 298 298 299 300 300 300 300 299 297 298 300 302 302 302 304
311 311 310 309 310 309 309 311 311 310 308 308 311 310 310 309 309 309 308 306 306 305 304 303 303 303 302 301 300 302 300 299 298 297 296 295 295 295 294 293 294 295 297 297 298 297 296 294 293 293 295 296 295 295 297 297 297 298 297 301 301 302 302
311 311 309 309 310 310 311 310 310 309 308 309 309 311 310 310 310 308 305 304 302 302 301 301 301 301 301 300 299 299 299 297 296 295 294 293 293 293 293 293 294 295 297 297 295 294 294 293 293 293 293 294 293 294 296 297 296 294 294 296 301 301 301
311 310 310 310 310 308 310 309 312 311 309 309 310 310 310 309 307 304 302 300 299 298 298 298 298 298 298 298 298 297 296 295 294 293 292 291 291 291 291 291 292 294 295 293 292 293 293 293 293 293 293 293 294 295 296 296 296 295 295 295 297 300 302
310 310 309 309 310 309 309 310 312 311 309 309 309 308 309 307 303 301 299 297 296 296 296 296 295 296 296 296 296 295 294 292 292 291 291 290 294 290 291 290 291 292 292 290 291 292 292 292 292 293 292 293 294 295 295 295 295 295 294 293 295 299 302
310 309 310 309 309 311 311 311 310 311 309 308 307 307 306 303 301 298 297 296 295 295 294 294 294 294 294 295 295 294 292 291 291 290 290 290 290 290 290 290 290 291 290 290 291 292 292 292 292 292 292 293 294 293 293 292 293 292 292 293 294 294 297
312 309 311 311 311 310 310 309 310 309 309 307 306 304 302 300 299 297 296 295 295 294 294 294 293 294 294 293 293 292 291 290 290 290 290 290 290 290 290 290 290 290 291 292 292 292 292 292 293 292 294 293 293 292 291 291 291 291 291 291 291 292 292
310 310 310 310 309 309 309 308 308 308 308 306 304 302 299 297 296 295 295 294 294 295 293 293 293 293 293 292 291 290 289 290 289 289 290 289 290 289 289 289 289 290 292 292 292 293 293 292 292 292 293 293 292 291 290 290 290 290 289 289 289 289 291
310 309 308 308 308 308 308 307 307 306 305 305 304 300 297 295 294 293 293 293 293 293 293 293 293 293 292 291 289 289 289 289 289 288 288 288 288 288 288 289 289 291 294 296 297 296 296 295 292 291 291 291 291 290 289 289 289 288 288 288 288 289 289
308 308 307 306 306 306 306 305 304 303 303 303 301 298 295 295 293 292 292 291 292 292 292 293 295 295 296 293 289 288 289 289 288 287 287 287 287 288 288 288 290 296 296 296 296 295 294 294 295 293 290 290 289 289 289 288 288 288 287 287 286 286 286
307 306 305 305 304 304 303 303 302 301 301 301 300 297 294 293 292 292 291 291 290 290 291 292 293 291 291 293 291 288 287 287 288 287 287 286 286 287 288 288 289 292 293 293 292 293 292 291 291 291 292 293 294 290 288 287 287 288 288 287 287 286 286
305 304 304 303 302 302 301 301 300 299 299 299 298 296 294 293 292 292 291 290 290 290 290 293 291 291 291 291 292 289 287 287 287 286 286 286 287 287 287 288 290 291 289 289 289 288 290 291 290 291 291 291 291 292 292 290 289 288 288 287 287 287 287
303 303 302 302 301 300 299 298 297 297 297 298 297 295 293 292 291 291 290 290 289 290 289 292 291 291 291 290 290 290 287 287 287 286 286 286 286 287 287 288 289 289 288 292 290 287 287 287 291 291 291 292 292 291 290 290 291 291 290 288 287 287 287
302 301 301 301 300 298 297 296 295 295 295 295 295 295 293 292 291 291 290 289 289 289 289 292 290 290 290 290 290 289 286 286 286 286 286 286 287 286 287 288 288 287 286 286 287 287 287 286 287 287 287 287 288 290 291 291 291 291 292 290 289 288 289
301 301 300 299 297 296 295 294 294 294 293 293 292 293 293 292 292 291 290 289 289 288 289 291 290 290 290 290 290 289 286 287 286 286 286 286 287 287 287 288 288 286 285 284 287 288 286 286 286 286 286 286 287 288 289 289 290 290 290 291 290 290 290
300 300 298 296 295 294 293 292 292 294 293 292 292 292 292 293 291 290 290 289 288 287 288 290 290 289 290 290 289 287 286 286 285 286 286 286 286 286 287 288 288 286 285 284 288 288 288 287 286 285 285 286 287 288 289 292 292 293 293 292 291 291 291
299 298 296 294 293 292 291 291 291 292 291 290 290 290 290 291 292 291 291 289 288 287 287 289 289 289 289 290 289 285 285 285 285 285 285 286 286 286 286 289 289 287 285 285 288 287 287 289 285 285 285 285 286 286 287 289 291 291 292 292 292 292 292
299 297 295 292 291 291 290 291 291 292 290 289 289 289 289 290 290 292 291 290 289 286 287 289 289 289 289 289 289 285 285 284 284 285 285 285 286 285 287 292 292 287 286 286 287 287 287 287 284 284 284 284 284 284 286 288 289 290 293 293 293 292 292
298 295 293 291 291 290 290 290 291 290 290 290 289 289 291 288 289 289 290 291 293 287 286 288 289 289 289 289 289 286 285 284 284 284 284 284 285 285 285 288 290 289 287 287 287 287 287 287 284 284 284 283 283 283 285 287 288 290 292 293 293 294 293
296 293 291 290 290 290 290 289 289 289 288 288 288 288 288 288 287 288 288 288 290 288 286 286 289 289 289 289 289 287 285 284 284 284 284 285 284 284 285 285 287 287 287 287 287 287 287 287 285 285 284 283 283 283 287 288 291 293 293 293 292 293 293
295 293 291 290 291 290 288 288 288 288 287 287 287 286 286 287 287 286 287 287 286 287 289 287 288 289 289 289 289 288 285 284 284 284 283 284 283 283 283 284 284 287 287 286 286 287 287 287 287 284 283 283 284 286 288 288 291 295 292 293 293 292 292
295 293 292 290 288 288 288 289 288 287 287 286 285 285 285 286 285 285 285 286 287 285 288 290 287 289 289 289 289 289 286 286 287 285 284 283 283 283 283 283 284 286 286 286 286 286 287 286 287 284 283 285 286 286 287 289 289 290 290 291 291 291 291
294 294 292 290 288 287 287 287 287 287 286 285 284 284 284 283 283 283 284 284 285 285 284 287 289 288 289 288 288 288 288 287 288 287 284 283 283 283 283 283 284 287 286 286 286 286 286 286 285 284 284 284 285 286 287 286 288 288 288 289 289 289 289
294 292 291 290 289 287 287 287 287 286 285 285 283 283 283 284 283 283 283 283 284 283 284 283 287 288 288 288 288 288 288 288 288 287 286 283 284 284 283 283 285 285 285 285 285 285 286 285 285 284 284 284 284 285 286 286 286 287 287 287 287 288 288
Wind_Speed
3 1 1 2 2 2 6 4 4 4 4 4 4 4 3 3 4 4 3 4 4 4 4 5 4 3 5 3 2 1 1 2 2 2 2 1 2 4 3 3 3 2 2 1 1 2 4 11 11 2 2 5 5 5 4 6 6 6 8 9 8 7 7
2 1 1 2 3 3 4 4 4 4 4 4 4 4 4 3 3 3 4 4 4 4 2 3 2 1 1 1 2 2 1 0 1 2 1 1 0 1 1 2 2 2 3 3 2 1 2 4 9 12 12 4 2 4 4 4 5 5 6 7 7 6 6
3 2 3 4 3 2 3 2 3 3 3 4 4 4 4 3 3 2 3 2 2 3 2 3 1 3 3 2 1 2 3 2 2 2 2 3 3 3 3 3 1 2 2 2 2 2 2 3 5 9 10 12 13 4 3 4 5 5 6 6 7 7 6
2 3 3 2 2 3 3 2 2 2 2 2 2 3 2 2 3 1 0 1 1 0 2 4 4 4 4 4 4 2 3 4 4 3 3 4 3 3 3 3 5 4 4 3 5 4 3 3 3 6 7 7 8 13 4 3 5 6 6 5 7 8 7
4 4 4 3 3 3 3 3 0 2 1 1 1 1 2 2 2 3 1 2 3 2 3 4 4 4 5 4 4 4 4 5 4 4 4 4 4 4 4 4 5 5 5 5 6 5 5 5 4 7 7 5 6 6 8 6 5 7 6 5 6 7 7
4 4 4 4 3 4 3 2 1 2 0 1 1 1 3 4 3 3 3 3 4 4 4 4 5 4 4 4 5 5 5 5 6 5 5 5 6 5 6 5 5 4 6 6 5 5 5 6 5 6 6 6 8 8 7 4 4 3 5 5 6 6 7
5 4 4 4 4 4 4 4 4 4 3 2 3 3 6 4 4 4 4 4 4 5 5 5 5 5 4 5 6 6 6 7 5 5 6 6 5 6 4 6 5 6 7 6 6 5 6 5 6 7 7 5 5 9 5 4 4 5 3 5 5 6 7
5 5 5 5 4 4 4 4 4 4 4 4 4 5 3 4 5 5 4 5 5 6 6 6 6 6 5 5 6 6 7 6 6 6 6 5 6 7 7 6 6 7 7 7 5 6 6 6 7 8 7 11 8 6 7 5 7 7 10 6 6 6 8
4 4 3 3 4 4 5 5 5 4 5 4 4 4 4 4 5 6 5 6 6 5 6 6 7 6 6 5 6 6 7 5 6 7 6 6 6 7 6 7 6 7 6 6 6 7 7 8 8 8 8 8 10 13 7 8 4 8 6 7 4 6 6
5 5 5 5 5 5 4 5 4 6 4 4 5 4 5 4 4 5 6 6 6 5 5 6 5 5 5 5 5 6 7 6 4 4 5 7 7 6 6 7 7 7 7 7 7 7 8 8 7 8 7 9 10 12 12 10 8 7 5 7 6 4 6
6 6 4 4 4 4 4 4 4 4 5 6 5 4 4 5 5 5 4 5 6 5 5 6 5 5 4 5 5 6 6 5 7 6 7 7 8 7 8 9 9 8 8 8 8 8 8 8 8 8 7 8 7 10 11 13 13 5 6 5 6 6 4
5 5 4 3 3 4 4 4 4 7 4 4 4 5 4 5 5 5 4 5 6 6 6 7 8 8 8 8 8 7 8 7 7 7 7 7 7 7 9 9 9 8 8 9 8 8 8 8 8 8 8 7 8 8 10 11 15 6 5 9 8 9 9
6 6 5 4 3 4 5 4 6 5 7 4 4 4 4 4 5 5 5 6 6 8 9 9 9 8 9 8 7 7 7 8 8 8 7 7 7 7 8 9 9 8 9 8 9 9 9 9 9 9 9 8 8 8 9 10 13 16 4 8 8 7 9
6 5 5 4 4 4 4 4 5 6 3 4 3 4 4 4 4 4 6 8 9 10 10 10 8 8 8 8 8 7 8 8 8 7 7 8 8 8 9 9 10 9 9 9 8 8 8 10 11 10 10 10 9 8 9 10 13 15 10 5 9 9 9
6 4 5 4 4 4 4 5 5 3 4 4 5 4 5 4 6 8 10 11 11 10 10 10 9 8 9 8 8 7 8 9 8 8 7 9 10 9 10 10 10 10 9 8 8 9 9 9 10 10 10 10 10 11 11 11 12 12 15 9 9 7 9
5 4 5 4 4 4 5 5 4 3 5 4 4 6 5 8 9 11 12 11 11 11 10 9 8 8 8 8 8 8 7 7 8 8 10 10 10 9 9 9 9 10 8 8 9 9 9 9 9 10 11 9 11 10 10 10 11 13 15 13 11 12 8
5 5 4 4 5 5 4 3 5 5 4 5 7 6 8 9 11 12 12 12 11 10 10 9 9 8 8 8 7 7 7 8 8 8 8 8 9 9 9 10 10 11 11 11 11 10 9 9 9 9 10 9 10 11 11 11 11 11 12 13 11 11 11
5 5 5 3 4 3 3 5 5 5 6 7 6 7 9 11 12 12 11 11 10 10 9 9 9 9 8 6 7 7 8 7 7 7 7 8 10 10 11 11 12 12 12 12 11 10 10 11 10 10 10 9 9 9 10 11 12 12 12 14 12 9 10
4 5 5 1 3 6 6 7 6 6 6 6 7 9 11 11 10 11 11 10 10 9 9 9 8 7 7 7 7 7 7 7 7 8 9 10 11 11 11 12 12 12 13 12 12 12 12 13 12 11 11 9 9 9 10 10 10 12 12 12 12 12 10
5 1 5 7 8 7 7 6 7 6 5 7 8 10 11 11 9 11 10 10 10 9 9 9 9 9 8 8 8 7 7 8 9 9 10 11 11 12 13 13 14 14 14 13 14 14 13 13 12 13 10 9 9 10 11 10 11 11 11 11 11 11 12
7 9 8 7 8 7 7 7 6 5 6 8 9 11 11 11 10 11 10 10 9 8 9 10 10 10 8 7 7 7 8 10 10 10 11 12 12 12 13 12 11 12 12 13 13 13 13 13 13 13 9 11 14 15 14 14 13 12 11 11 10 11 11
7 8 7 8 9 8 7 6 6 6 8 8 9 11 10 11 11 11 10 9 9 9 9 9 8 8 7 7 8 9 9 10 10 10 10 10 10 10 10 10 10 13 16 20 23 20 20 19 14 15 15 14 15 16 16 14 13 13 11 10 11 10 10
8 7 9 9 8 7 6 6 7 8 8 8 10 11 11 11 11 10 10 9 9 9 8 7 13 18 15 9 8 8 9 9 10 9 10 9 9 10 10 11 11 23 22 25 24 24 24 24 25 21 18 18 18 17 16 15 14 13 12 11 10 10 11
8 9 7 8 6 7 6 7 8 8 8 9 11 11 10 11 10 9 10 9 10 9 8 9 16 15 16 19 11 9 9 8 8 9 9 10 10 10 10 10 9 14 19 21 21 25 23 25 26 26 27 26 23 18 16 17 15 12 13 13 11 10 10
9 8 8 7 6 6 7 8 8 9 9 10 10 10 11 10 9 8 8 9 9 8 8 14 14 17 17 18 16 9 7 8 8 9 9 10 9 9 10 10 9 9 13 18 17 17 23 27 26 26 26 25 24 24 21 17 15 14 12 13 14 14 11
8 8 7 6 6 7 8 9 9 10 10 8 9 10 9 9 8 7 8 9 10 8 8 15 16 18 17 16 16 12 7 8 9 9 9 9 9 10 10 10 9 10 12 24 18 16 18 21 26 29 26 25 23 23 19 19 20 17 13 12 15 15 11
9 7 6 7 7 8 9 9 9 8 9 9 9 9 8 8 6 7 8 8 8 8 8 15 18 18 16 16 15 11 8 8 9 9 10 10 9 10 12 11 10 11 13 15 14 19 19 19 20 19 19 17 15 19 20 21 21 22 19 14 13 14 14
8 8 7 7 8 9 9 9 10 8 8 8 7 6 7 6 5 6 6 7 7 8 9 17 17 17 17 15 16 11 8 8 8 8 9 9 9 9 11 10 10 10 12 13 15 23 22 21 20 18 18 18 18 16 16 14 11 9 11 10 11 14 14
8 8 8 9 10 9 8 8 9 7 8 7 7 6 6 6 6 5 4 5 7 9 9 17 17 17 17 15 14 8 8 8 8 8 8 9 9 8 9 10 9 9 12 13 21 29 27 22 18 19 19 18 18 16 15 15 20 20 18 14 13 14 13
8 9 9 10 9 8 8 8 7 6 9 7 7 7 6 4 4 4 5 6 7 6 8 14 16 17 16 16 9 7 7 7 7 8 9 8 7 9 9 12 12 9 11 13 24 26 27 28 17 18 18 19 17 17 16 16 19 20 20 22 23 24 23
10 9 9 10 9 7 7 7 7 6 8 7 7 6 5 6 5 4 5 6 6 6 6 13 16 15 16 17 13 7 7 7 7 8 8 8 7 7 11 22 19 12 13 16 25 25 26 25 17 18 18 19 19 18 18 17 15 13 17 18 19 20 20
10 10 10 8 8 8 8 7 6 6 7 6 6 5 6 6 6 5 5 5 12 8 6 9 16 15 16 16 13 6 7 6 8 9 8 8 7 7 8 11 21 20 19 22 25 23 25 23 16 16 16 17 18 19 16 18 16 14 14 11 9 9 9
10 11 11 8 8 7 5 6 7 7 6 6 6 6 6 6 6 5 5 5 6 5 7 7 11 15 15 14 17 9 6 8 9 9 8 8 9 7 8 8 13 18 23 24 24 24 23 23 18 15 14 14 17 19 18 16 18 16 13 11 10 10 10
11 9 9 9 7 6 5 7 6 7 7 6 6 6 6 5 6 5 5 5 6 6 7 8 9 14 15 15 16 13 6 8 7 7 7 8 8 9 9 10 9 18 24 25 25 25 24 22 20 15 13 14 16 22 21 14 16 24 15 15 14 12 10
10 9 8 9 9 7 5 6 6 7 6 6 6 6 5 5 6 5 5 5 5 6 9 13 8 11 15 15 15 17 9 7 9 7 8 8 9 8 9 10 9 19 25 25 25 25 24 22 20 14 18 24 27 27 20 15 14 14 13 12 12 12 11
9 7 7 8 9 8 5 6 6 7 7 6 6 6 5 4 4 5 5 5 5 6 6 7 12 9 13 15 16 15 15 10 14 9 8 8 9 8 7 9 12 23 24 25 24 25 22 22 16 17 25 26 25 27 21 14 14 15 14 13 15 14 12
8 8 8 8 8 8 6 6 6 6 6 6 6 6 5 5 4 4 6 6 6 6 5 5 8 12 11 14 14 14 13 15 15 10 8 7 7 8 8 10 13 22 23 24 24 24 20 21 17 24 24 26 26 22 12 12 14 13 13 15 14 13 14
Wind_Direction
80 43 19 40 10 12 44 9 19 15 11 23 33 30 17 28 59 50 45 36 34 16 32 36 21 1 18 5 22 39 25 86 106 92 5 21 82 311 338 331 337 316 323 241 225 301 282 317 317 309 239 321 327 312 314 329 330 330 328 326 325 326 323
115 93 33 42 48 18 53 10 28 18 13 10 29 38 24 19 35 46 42 30 23 360 10 19 355 340 310 323 345 345 322 263 174 191 148 254 200 237 276 298 307 264 276 251 257 169 297 314 306 322 324 308 266 279 302 292 302 307 308 307 311 320 314
133 121 99 91 73 61 68 27 34 39 11 15 3 27 15 7 4 35 49 41 350 347 337 322 313 316 300 292 258 245 246 265 253 208 199 224 211 232 192 203 204 304 342 326 304 276 256 212 255 302 309 318 322 298 267 287 299 299 299 305 312 315 313
124 109 79 76 102 82 96 68 62 56 58 19 349 346 352 340 321 322 126 208 259 245 298 291 284 265 271 269 274 265 273 264 268 261 268 250 242 249 260 205 225 209 218 237 264 251 204 256 286 272 279 285 286 307 278 238 281 282 284 295 305 307 306
160 151 153 163 160 148 149 138 204 51 13 316 348 326 313 313 303 305 291 278 254 251 257 256 266 250 259 264 272 263 262 271 269 264 256 274 271 260 260 244 234 230 235 227 239 232 230 246 226 264 278 274 285 255 286 293 243 252 261 282 289 293 296
170 173 176 173 181 156 176 152 132 134 266 358 303 275 275 271 237 266 287 265 269 266 253 264 270 266 257 261 266 268 262 262 263 254 258 255 253 252 252 253 242 245 244 244 239 243 252 250 246 266 260 253 263 286 285 281 288 230 224 245 263 282 286
183 183 193 177 191 175 182 179 184 196 203 213 236 228 238 253 272 242 240 253 240 256 264 256 259 262 260 252 261 266 264 257 263 260 257 264 272 265 260 272 269 254 254 255 252 250 255 259 262 249 266 260 245 269 274 296 266 303 268 218 234 253 271
190 197 203 198 182 171 197 195 219 217 204 238 225 248 249 251 262 283 268 252 256 251 256 263 263 263 258 261 259 260 269 268 266 270 277 291 300 312 313 301 300 296 277 277 286 276 269 253 252 262 267 284 278 247 271 246 274 250 268 264 220 244 242
203 204 222 224 206 197 188 195 214 223 226 233 260 253 265 236 255 268 278 268 260 259 260 261 264 266 265 262 274 280 285 308 330 339 341 346 336 333 331 324 323 312 316 316 314 300 291 284 278 276 269 263 276 286 256 268 242 256 242 266 261 222 232
202 208 215 219 211 213 196 207 211 231 240 246 256 258 265 267 254 251 272 279 281 276 280 282 285 291 313 327 329 326 327 339 359 6 3 9 1 357 352 347 347 334 327 325 315 310 305 299 291 284 276 275 274 277 288 278 255 252 249 227 258 252 217
198 214 215 211 232 194 216 226 240 269 249 242 245 256 259 272 279 279 282 300 304 314 318 325 331 336 352 6 14 24 17 19 30 26 23 15 11 3 358 353 349 339 332 330 324 316 314 310 307 302 294 285 276 278 283 285 284 215 262 236 230 258 253
213 211 219 218 181 167 204 222 230 240 260 265 262 271 283 285 289 311 336 323 334 343 360 15 25 38 45 49 39 36 27 28 31 26 20 14 5 1 357 349 342 336 333 328 324 322 318 318 311 308 303 295 289 277 280 283 288 272 198 264 242 239 250
201 200 203 201 187 183 207 222 233 257 252 263 266 277 299 310 333 340 339 351 13 37 41 38 38 41 45 45 39 35 23 25 26 21 9 7 1 357 352 346 340 334 331 329 325 323 319 316 317 316 312 305 295 285 280 280 279 286 249 260 260 251 243
208 208 202 209 197 210 222 224 237 237 293 292 325 347 348 349 352 7 27 43 49 47 43 38 34 38 42 38 34 30 24 23 22 14 5 359 357 351 348 341 338 334 330 329 327 326 331 336 337 332 326 320 315 309 301 295 290 292 290 251 264 262 250
207 199 208 216 225 232 240 240 249 278 299 345 13 13 21 22 39 51 57 52 50 46 44 40 33 35 36 32 29 24 21 19 14 7 1 357 352 352 346 342 336 332 327 325 333 341 341 340 337 334 332 336 333 328 326 319 312 309 309 313 292 275 267
204 204 205 219 227 238 244 250 272 332 13 2 24 45 38 48 57 63 59 53 49 46 40 39 33 35 34 30 27 24 20 16 11 4 3 356 348 345 341 337 332 330 330 337 343 336 335 335 335 333 333 331 325 319 322 327 324 317 317 315 319 308 292
206 207 207 220 219 239 243 288 13 31 33 44 50 39 50 59 66 64 62 56 51 47 42 36 35 33 31 28 27 23 17 15 8 4 358 349 346 346 343 343 343 341 341 341 337 334 332 333 333 330 328 328 325 331 331 328 321 312 312 311 317 313 309
204 214 226 224 225 249 1 29 46 45 56 51 47 51 57 69 68 65 63 59 53 47 40 34 33 30 26 23 25 21 16 10 2 357 353 350 351 351 349 347 342 343 341 335 332 331 331 332 331 328 327 326 330 331 328 326 322 318 315 310 309 311 316
202 215 223 243 24 44 66 61 60 56 55 59 49 57 70 70 75 74 68 62 58 51 42 36 32 27 22 18 17 16 10 2 0 357 360 359 357 354 350 347 347 344 342 336 333 335 337 336 333 330 327 332 336 329 324 320 317 315 309 306 313 317 322
204 216 45 68 76 67 63 66 61 58 49 55 58 72 79 82 74 74 67 61 54 48 42 36 29 21 18 15 11 8 2 6 6 6 4 3 1 0 0 357 352 350 345 344 344 343 339 336 335 329 330 337 329 323 318 316 315 311 309 312 314 312 309
68 86 88 77 79 75 68 64 61 51 52 54 68 84 86 84 76 69 63 59 52 46 42 36 27 17 11 10 7 9 13 15 12 10 9 6 6 6 4 356 350 345 346 348 344 340 341 338 333 327 334 328 328 325 321 317 315 311 308 307 307 309 307
87 81 87 76 70 72 68 62 57 52 53 69 80 87 85 82 78 72 64 59 53 44 42 35 26 13 2 15 19 18 18 18 17 14 11 6 3 1 356 353 347 351 353 350 347 344 342 339 334 330 327 325 320 318 314 312 309 307 304 302 299 300 300
84 81 76 77 73 73 74 65 60 58 61 76 87 84 82 77 75 73 69 58 52 46 40 36 28 29 29 32 30 25 20 20 17 12 8 3 1 359 354 349 346 356 357 352 348 344 342 339 337 331 324 322 318 313 309 306 303 304 303 299 297 299 297
80 75 72 73 73 68 64 63 62 66 70 75 84 85 83 79 74 70 65 61 54 48 41 34 30 33 33 31 33 26 20 13 13 9 8 3 358 354 352 345 338 353 358 352 346 345 342 337 332 327 323 320 317 312 305 304 297 297 301 298 294 288 284
85 80 80 77 77 69 64 69 71 69 71 77 83 86 79 78 75 70 67 63 59 50 44 31 33 35 33 29 27 25 15 14 10 8 4 1 357 352 347 344 346 358 358 351 350 344 338 335 332 327 324 322 320 316 307 296 296 295 291 292 290 285 279
93 90 86 85 74 74 75 71 70 68 69 79 86 82 85 80 77 73 69 66 58 46 45 33 36 33 29 25 21 21 15 12 10 6 3 357 354 350 344 343 351 4 355 351 349 346 342 335 332 329 325 322 319 321 318 304 293 286 279 274 280 279 270
95 97 92 82 79 80 78 72 70 71 72 72 80 87 86 84 83 79 72 69 62 50 44 36 37 30 24 21 18 18 11 9 6 3 359 353 348 348 346 339 352 359 354 349 345 347 343 337 332 328 325 321 315 314 313 309 304 293 284 274 268 269 268
96 91 90 88 84 77 75 74 69 69 71 68 73 88 101 99 87 79 74 69 70 56 43 39 38 29 22 19 16 16 7 4 1 358 351 347 345 344 342 337 349 357 352 348 348 349 344 339 335 330 325 322 316 312 310 302 289 278 281 266 260 260 264
104 99 94 86 80 77 73 74 76 76 77 69 65 76 84 96 91 83 83 76 67 56 43 40 36 30 22 15 16 10 5 359 353 349 348 345 343 340 338 336 345 355 352 342 347 345 342 341 335 330 326 322 321 317 312 306 301 294 286 273 264 259 258
106 97 90 87 83 78 77 72 73 78 77 72 71 65 71 79 102 100 76 66 66 59 46 37 34 28 22 15 16 5 0 354 349 348 350 344 338 343 337 346 349 353 348 343 345 341 339 343 337 334 329 328 324 320 316 314 310 301 288 274 265 261 259
101 96 92 91 90 84 79 75 71 72 82 81 73 71 77 72 63 75 72 69 61 55 43 36 32 24 20 17 17 8 354 350 347 352 346 341 341 344 345 354 353 353 349 345 341 339 340 349 343 336 333 332 331 327 322 320 314 305 289 275 270 268 265
104 101 96 90 91 87 79 82 84 77 80 79 78 79 71 68 62 50 59 64 58 58 37 29 27 21 17 13 12 7 356 344 355 351 342 339 346 343 341 350 354 354 350 341 337 336 335 345 345 336 329 330 333 328 323 317 313 311 317 318 310 302 292
105 103 101 94 83 88 96 87 82 83 79 81 75 66 64 67 65 52 44 48 42 49 42 24 20 15 12 7 7 6 353 359 351 341 341 341 347 344 348 351 348 349 346 339 336 335 333 340 350 343 338 333 332 331 325 321 324 336 340 338 320 309 301
105 100 103 102 99 89 87 93 89 86 84 74 70 60 63 62 60 50 45 47 41 24 29 27 8 9 7 5 2 3 0 355 340 336 337 340 348 348 350 351 339 347 345 337 334 334 332 338 348 350 342 339 331 326 333 337 334 354 356 357 345 330 321
103 107 105 103 99 89 79 90 94 93 85 80 74 65 53 55 54 46 42 44 41 31 19 21 10 1 3 360 359 2 2 347 341 343 347 347 347 350 349 347 338 346 342 336 338 337 335 342 348 356 347 343 340 342 347 345 347 356 358 359 360 357 356
112 112 108 106 104 99 96 90 88 86 85 77 72 64 51 47 53 43 40 34 30 22 9 0 1 357 357 357 357 356 353 347 351 360 356 350 345 340 342 342 343 346 339 339 341 338 334 346 352 357 355 351 350 349 352 355 354 357 358 352 4 6 3
113 113 116 110 104 109 102 95 89 90 87 85 77 64 45 48 47 47 40 27 19 6 349 351 345 350 349 352 352 352 349 353 358 359 353 344 343 341 348 346 346 342 342 344 344 340 339 352 356 358 359 356 358 354 348 352 358 355 356 1 2 358 359